STARLINK-1104 (44922 NORAD) Tracking and Keplerian Element Data

This shows tracking and keplerian element data for the satellite.

Feedback or suggestion? Click here.




ElementValue
Catalog44922
NameSTARLINK-1104
Epoch Orbit161
Epoch Day93.91667824
Epoch Year2020
RAAN353.6302
Inclination53.003
Eccentricity0.0002624
Argument of Perigee71.6963
Mean Anonmoly136.148
Mean Motion15.05584984
Decay Rate-0.00025132
L11 44922U 20001J 20093.91667824 -.00025132 00000-0 -17114-2 0 9992
L22 44922 53.0030 353.6302 0002624 71.6963 136.1480 15.05584984 1612

Live tracking and technical data element details for STARLINK-1104 (NORAD 44922). STARLINK-1104 can be tracked NOW for your location showing map with azimuth and elevation plus other details from your city location.

Track the satellite on the map from your city or location and see movement details for azimuth, elevation, latitude, longitude, range, height, and movement on the map or in text.







IsCatalogInMostPopularTable: catalog: 44922, numindb: 25
Update: records affected: 1



GetName: 44922 STARLINK-1104

Hit Count: updated at: Sun, 05 Apr 2020 18:37:43 GMT